Flag for United Kingdom Weather past 2 weeks in Inverness, Scotland, United Kingdom

52 °F

Passing clouds.

Feels Like: 47 °F
Forecast: N/A
Wind: 14 mph from West

Location: Inverness / Dalcross

Current Time: Dec 1, 2015 at 6:41:28 PM

Latest Report: Dec 1, 2015 at 6:20 PM

Visibility: N/A

Pressure: 29.56 "Hg

Humidity: 88%

Dew point: 48 °F

Location of InvernessLocation

Historic Weather in Inverness — Graph


Inverness temperature yesterday

Maximum temperature yesterday: 39 °F (at 12:50 PM)
Minimum temperature yesterday: 32 °F (at 7:50 PM)
Average temperature yesterday: 35 °F

Past Weeks' High & Low Weather Summary

High54 °F (Nov 26, 11:20 AM)100% (Nov 20, 1:50 AM)30.15 "Hg (Nov 20, 1:50 AM)
Low30 °F (Nov 21, 8:50 AM)70% (Nov 21, 12:20 AM)29.03 "Hg (Nov 29, 10:20 AM)
Average41 °F87%29.58 "Hg
* Reported Nov 16 5:20 PM — Dec 1 5:20 PM, Inverness, Weather by CustomWeather, © 2015

Note: Actual official high and low records may vary slightly from our data, if they occured in-between our weather recording intervals... More about our weather records


Inverness weather history for previous 24 hours

Time TempWeatherWind HumidityBarometerVisibility
5:20 PM
Tue, Dec 1
48 °FLight rain. Passing clouds.15 mph94%29.59 "HgN/A
4:50 PM46 °FLight rain. Passing clouds.13 mph93%29.59 "HgN/A
4:20 PM45 °FLight rain. Passing clouds.14 mph93%29.59 "HgN/A
3:50 PM39 °FScattered showers. Passing clouds.5 mph100%29.59 "HgN/A
3:20 PM39 °FScattered showers. Partly sunny.No wind100%29.62 "HgN/A
2:50 PM39 °FScattered clouds.2 mph100%29.62 "HgN/A
2:20 PM39 °FLight rain. Scattered clouds.3 mph100%29.65 "HgN/A
1:50 PM39 °FLight rain. Scattered clouds.5 mph100%29.65 "HgN/A
1:20 PM41 °FLight rain. Partly sunny.3 mph87%29.65 "HgN/A
12:50 PM41 °FLight rain. Partly sunny.2 mph87%29.68 "HgN/A
12:20 PM41 °FLight rain. Partly sunny.9 mph87%29.68 "HgN/A
11:50 AM37 °FLight rain. Partly sunny.2 mph93%29.71 "Hg5 mi
11:20 AM37 °FLight rain. Partly sunny.5 mph93%29.74 "Hg5 mi
10:50 AM36 °FMixture of precip. Partly sunny.7 mph93%29.77 "HgN/A
10:20 AM37 °FMixture of precip. Partly sunny.10 mph87%29.77 "HgN/A
9:50 AM37 °FLight rain. Partly sunny.15 mph87%29.83 "Hg5 mi
9:20 AM37 °FLight rain. Partly sunny.20 mph87%29.83 "Hg5 mi
8:50 AM37 °FPartly sunny.No wind81%29.86 "HgN/A
6:50 AM30 °FPassing clouds.No wind93%29.89 "HgN/A
6:20 AM30 °FPassing clouds.3 mph93%29.92 "HgN/A
5:50 AM30 °FPassing clouds.No wind93%29.92 "HgN/A
5:20 AM30 °FPassing clouds.No wind93%29.92 "HgN/A
4:50 AM30 °FPassing clouds.7 mph93%29.95 "HgN/A
4:20 AM30 °FPassing clouds.9 mph93%29.95 "HgN/A
3:50 AM30 °FPassing clouds.8 mph93%29.95 "HgN/A
3:20 AM30 °FPassing clouds.9 mph93%29.95 "HgN/A
2:50 AM32 °FPassing clouds.6 mph87%29.95 "HgN/A
2:20 AM32 °FPassing clouds.7 mph87%29.95 "HgN/A
1:50 AM36 °FChilly.13 mph81%29.95 "HgN/A
12:50 AM34 °FChilly.9 mph87%29.92 "HgN/A
11:50 PM
Mon, Nov 30
34 °FChilly.9 mph87%29.92 "HgN/A
11:20 PM32 °FChilly.9 mph87%29.89 "HgN/A
10:50 PM34 °FChilly.13 mph87%29.89 "HgN/A
10:20 PM34 °FChilly.13 mph87%29.89 "HgN/A
9:50 PM36 °FClear.15 mph81%29.89 "Hg10 mi
9:20 PM34 °FPassing clouds.14 mph87%29.86 "HgN/A
8:50 PM34 °FClear.9 mph81%29.86 "Hg10 mi
8:20 PM34 °FClear.9 mph81%29.83 "Hg10 mi
7:50 PM32 °FClear.9 mph87%29.80 "Hg10 mi
7:20 PM36 °FClear.12 mph81%29.80 "Hg10 mi
6:50 PM34 °FClear.10 mph87%29.77 "Hg10 mi
6:20 PM34 °FPassing clouds.12 mph87%29.77 "HgN/A
Weather by CustomWeather, © 2015

See weather overviewHow to use our weather pages